W9PPN Weather Reports


Display with metric or nautical units.
time (UTC)temp
F
wind
direction
speed
MPH
gust
MPH
rain 1hr
in
rain 24hr
in
rain mn
in
humidity
%
barometer
mb
20191020192020 56 73 2.0 5.0 0.00 0.00 0.00 53 1007.8
20191020191520 57 75 1.0 5.0 0.00 0.00 0.00 56 1007.5
20191020191019 57 85 1.0 5.0 0.00 0.00 0.00 56 1007.5
20191020190514 56 87 2.0 5.0 0.00 0.00 0.00 54 1007.5
20191020190014 56 70 2.0 5.0 0.00 0.00 0.00 54 1007.4
20191020185512 57 95 1.0 4.0 0.00 0.00 0.00 53 1007.4
20191020185013 57 95 0.0 4.0 0.00 0.00 0.00 52 1007.4
20191020184512 57 126 0.0 2.0 0.00 0.00 0.00 53 1007.5
20191020184010 57 124 0.0 4.0 0.00 0.00 0.00 53 1007.5
20191020183507 57 124 0.0 4.0 0.00 0.00 0.00 55 1007.5
20191020183002 57 124 0.0 4.0 0.00 0.00 0.00 54 1007.5
20191020182502 57 126 0.0 5.0 0.00 0.00 0.00 54 1007.5
20191020182001 57 90 0.0 5.0 0.00 0.00 0.00 57 1007.5
20191020181458 57 88 1.0 5.0 0.00 0.00 0.00 55 1007.5
20191020180959 57 88 1.0 5.0 0.00 0.00 0.00 54 1007.5
20191020180458 57 161 0.0 3.0 0.00 0.00 0.00 56 1007.5
20191020175958 57 161 1.0 3.0 0.00 0.00 0.00 55 1007.5
20191020175458 57 209 0.0 3.0 0.00 0.00 0.00 55 1007.5
20191020174956 56 219 0.0 0.0 0.00 0.00 0.00 60 1007.5
20191020174455 56 219 0.0 0.0 0.00 0.00 0.00 62 1007.5
20191020173952 56 219 0.0 0.0 0.00 0.00 0.00 62 1007.5
20191020173450 56 219 0.0 3.0 0.00 0.00 0.00 59 1007.5
20191020172948 55 219 0.0 3.0 0.00 0.00 0.00 60 1007.4
20191020172450 55 219 1.0 3.0 0.00 0.00 0.00 60 1007.4
20191020171946 55 219 1.0 3.0 0.00 0.00 0.00 62 1007.4
20191020171442 54 220 0.0 0.0 0.00 0.00 0.00 63 1007.5
20191020170943 54 220 0.0 0.0 0.00 0.01 0.00 65 1007.5
20191020170442 54 221 0.0 0.0 0.00 0.01 0.00 65 1007.5
20191020165942 54 221 0.0 0.0 0.00 0.01 0.00 65 1007.7
20191020165441 53 221 0.0 0.0 0.00 0.01 0.00 66 1007.7
20191020164940 53 221 0.0 0.0 0.00 0.01 0.00 66 1007.7
20191020164440 53 221 0.0 0.0 0.00 0.01 0.00 68 1007.6
20191020163941 53 221 0.0 0.0 0.00 0.02 0.00 69 1007.6
20191020163440 53 221 0.0 0.0 0.00 0.02 0.00 69 1007.6
20191020162940 53 221 0.0 0.0 0.00 0.02 0.00 70 1007.6
20191020162440 53 221 0.0 0.0 0.00 0.03 0.00 71 1007.6
20191020161937 53 221 0.0 0.0 0.00 0.04 0.00 71 1007.6
20191020161437 52 221 0.0 3.0 0.00 0.04 0.00 70 1007.5
20191020160934 52 221 0.0 3.0 0.00 0.05 0.00 69 1007.5
20191020160434 52 221 0.0 3.0 0.00 0.06 0.00 68 1007.5
20191020155932 52 221 0.0 3.0 0.00 0.06 0.00 68 1007.4
20191020155432 52 221 0.0 0.0 0.00 0.06 0.00 67 1007.4
20191020154930 51 221 0.0 0.0 0.00 0.06 0.00 64 1007.4
20191020154431 51 221 0.0 0.0 0.00 0.06 0.00 66 1007.2
20191020153928 51 221 0.0 0.0 0.00 0.06 0.00 66 1007.2
20191020153426 51 221 0.0 0.0 0.00 0.06 0.00 62 1007.2
20191020152927 50 221 0.0 0.0 0.00 0.06 0.00 63 1007.0
20191020152425 50 221 0.0 0.0 0.00 0.06 0.00 63 1007.0
20191020151926 50 221 0.0 2.0 0.00 0.06 0.00 64 1007.0
20191020151422 50 221 0.0 2.0 0.00 0.06 0.00 64 1006.8
20191020150921 50 221 0.0 2.0 0.00 0.06 0.00 64 1006.8
20191020150421 49 221 0.0 2.0 0.00 0.06 0.00 63 1006.8
20191020145920 49 221 0.0 4.0 0.00 0.06 0.00 64 1006.8
20191020145420 49 221 1.0 4.0 0.00 0.06 0.00 64 1006.8
20191020144920 49 221 1.0 4.0 0.00 0.06 0.00 65 1006.8
20191020144421 49 221 1.0 4.0 0.00 0.06 0.00 64 1006.7
20191020143920 49 221 0.0 2.0 0.00 0.06 0.00 65 1006.7
20191020143415 49 221 0.0 2.0 0.00 0.06 0.00 65 1006.7
20191020142913 48 221 0.0 0.0 0.00 0.06 0.00 66 1006.5
20191020142409 48 221 0.0 3.0 0.00 0.06 0.00 65 1006.5
20191020141910 47 221 0.0 3.0 0.00 0.06 0.00 68 1006.5
20191020141410 47 221 1.0 3.0 0.00 0.06 0.00 68 1006.3
20191020140907 47 221 1.0 3.0 0.00 0.06 0.00 69 1006.3
20191020140408 46 221 1.0 3.0 0.00 0.06 0.00 71 1006.3
20191020135903 45 221 0.0 2.0 0.00 0.06 0.00 71 1005.9
20191020135404 45 221 0.0 0.0 0.00 0.06 0.00 73 1005.9
20191020134902 45 221 0.0 0.0 0.00 0.06 0.00 74 1005.9
20191020134359 45 221 0.0 1.0 0.00 0.06 0.00 74 1005.8
20191020133900 44 221 0.0 1.0 0.00 0.06 0.00 73 1005.8
20191020133357 44 221 0.0 1.0 0.00 0.06 0.00 73 1005.8
20191020132856 44 221 0.0 1.0 0.00 0.06 0.00 74 1005.7
20191020132355 44 221 0.0 0.0 0.00 0.06 0.00 74 1005.7
20191020131853 44 221 0.0 0.0 0.00 0.06 0.00 74 1005.7
20191020131354 43 221 0.0 0.0 0.00 0.06 0.00 75 1005.6
20191020130854 43 221 0.0 0.0 0.00 0.06 0.00 75 1005.6
20191020130353 43 221 0.0 0.0 0.00 0.06 0.00 75 1005.6
20191020125853 43 221 0.0 0.0 0.00 0.06 0.00 75 1005.3
20191020125350 43 221 0.0 0.0 0.00 0.06 0.00 75 1005.3
20191020124849 43 221 0.0 0.0 0.00 0.06 0.00 75 1005.3
20191020124347 43 221 0.0 0.0 0.00 0.06 0.00 74 1005.2
20191020123846 43 221 0.0 0.0 0.00 0.06 0.00 74 1005.2
20191020123343 43 221 0.0 0.0 0.00 0.06 0.00 74 1005.2
20191020122843 43 221 0.0 0.0 0.00 0.06 0.00 74 1005.0
20191020122340 43 221 0.0 0.0 0.00 0.06 0.00 74 1005.0
20191020121838 43 221 0.0 0.0 0.00 0.06 0.00 74 1005.0
20191020121332 43 221 0.0 0.0 0.00 0.06 0.00 74 1004.8
20191020120828 43 221 0.0 0.0 0.00 0.06 0.00 74 1004.8
20191020120326 43 221 0.0 0.0 0.00 0.06 0.00 74 1004.6
20191020115825 43 221 0.0 0.0 0.00 0.06 0.00 74 1004.6
20191020115326 43 221 0.0 0.0 0.00 0.06 0.00 74 1004.6
20191020114825 43 221 0.0 0.0 0.00 0.06 0.00 74 1004.4
20191020114324 43 221 0.0 0.0 0.00 0.06 0.00 74 1004.4
20191020113823 43 221 0.0 0.0 0.00 0.06 0.00 74 1004.4
20191020113323 43 221 0.0 0.0 0.00 0.06 0.00 73 1004.4
20191020112822 43 221 0.0 0.0 0.00 0.06 0.00 73 1004.1
20191020112321 43 221 0.0 0.0 0.00 0.06 0.00 72 1004.1
20191020111819 43 221 0.0 0.0 0.00 0.06 0.00 73 1004.1
20191020111319 43 221 0.0 0.0 0.00 0.06 0.00 73 1004.1
20191020110815 43 221 0.0 0.0 0.00 0.06 0.00 74 1004.1
20191020110313 43 221 0.0 0.0 0.00 0.06 0.00 74 1003.8
20191020105813 43 221 0.0 0.0 0.00 0.06 0.00 74 1003.8
20191020105311 43 221 0.0 0.0 0.00 0.06 0.00 74 1003.8
20191020104810 43 221 0.0 0.0 0.00 0.06 0.00 74 1003.7
20191020104307 43 221 0.0 0.0 0.00 0.06 0.00 74 1003.7
20191020103811 43 221 0.0 0.0 0.00 0.06 0.00 73 1003.7
20191020103305 43 221 0.0 0.0 0.00 0.06 0.00 73 1003.6
20191020102808 44 221 0.0 0.0 0.00 0.06 0.00 72 1003.6
20191020102305 44 221 0.0 0.0 0.00 0.06 0.00 71 1003.6
20191020101805 44 221 0.0 0.0 0.00 0.06 0.00 71 1003.6
20191020101303 44 221 0.0 0.0 0.00 0.06 0.00 70 1003.6
20191020100803 44 221 0.0 0.0 0.00 0.06 0.00 71 1003.6
20191020100302 44 221 0.0 0.0 0.00 0.06 0.00 70 1003.2
20191020095800 44 221 0.0 0.0 0.00 0.06 0.00 70 1003.2
20191020095257 44 221 0.0 0.0 0.00 0.06 0.00 70 1003.2
20191020094756 44 221 0.0 0.0 0.00 0.06 0.00 70 1003.1
20191020094253 44 221 0.0 0.0 0.00 0.06 0.00 71 1003.1
20191020093753 44 221 0.0 0.0 0.00 0.06 0.00 71 1003.1
20191020093253 44 221 0.0 0.0 0.00 0.06 0.00 71 1003.1
20191020092747 44 221 0.0 0.0 0.00 0.06 0.00 71 1003.1
20191020092245 44 221 0.0 0.0 0.00 0.06 0.00 71 1003.1
20191020091744 44 221 0.0 0.0 0.00 0.06 0.00 71 1002.9
20191020091242 44 221 0.0 0.0 0.00 0.06 0.00 71 1002.9
20191020090744 44 221 0.0 0.0 0.00 0.06 0.00 71 1002.9
20191020090240 44 221 0.0 0.0 0.00 0.06 0.00 71 1002.8
20191020085740 44 221 0.0 0.0 0.00 0.06 0.00 72 1002.8
20191020085239 44 221 0.0 0.0 0.00 0.06 0.00 72 1002.8
20191020084741 44 221 0.0 0.0 0.00 0.06 0.00 72 1002.7
20191020084237 44 221 0.0 0.0 0.00 0.06 0.00 72 1002.7
20191020083739 44 221 0.0 0.0 0.00 0.06 0.00 72 1002.7
20191020083237 44 221 0.0 0.0 0.00 0.06 0.00 73 1002.6
20191020082738 44 221 0.0 0.0 0.00 0.06 0.00 73 1002.6
20191020082236 44 221 0.0 0.0 0.00 0.06 0.00 73 1002.6
20191020081737 44 221 0.0 0.0 0.00 0.06 0.00 74 1002.6
20191020081237 43 221 0.0 0.0 0.00 0.06 0.00 74 1002.6
20191020080734 43 221 0.0 0.0 0.00 0.06 0.00 74 1002.6
20191020080233 43 221 0.0 0.0 0.00 0.06 0.00 74 1002.6
20191020075731 43 221 0.0 0.0 0.00 0.06 0.00 75 1002.6
20191020075232 43 221 0.0 0.0 0.00 0.06 0.00 76 1002.6
20191020074728 44 221 0.0 0.0 0.00 0.06 0.00 76 1002.5
20191020074223 44 221 0.0 0.0 0.00 0.06 0.00 77 1002.5
20191020073722 44 221 0.0 0.0 0.00 0.06 0.00 76 1002.5
20191020073220 44 221 0.0 0.0 0.00 0.06 0.00 75 1002.4
20191020072720 44 221 0.0 0.0 0.00 0.06 0.00 73 1002.4
20191020072214 44 221 0.0 0.0 0.00 0.06 0.00 73 1002.4
20191020071710 44 221 0.0 0.0 0.00 0.06 0.00 73 1002.1
20191020071209 44 221 0.0 0.0 0.00 0.06 0.00 73 1002.1
20191020070710 44 221 0.0 0.0 0.00 0.06 0.00 74 1002.1
20191020070212 44 221 0.0 0.0 0.00 0.06 0.00 75 1002.0
20191020065709 44 221 0.0 0.0 0.00 0.06 0.00 76 1002.0
20191020065206 44 221 0.0 0.0 0.00 0.06 0.00 77 1002.0
20191020064702 44 221 0.0 0.0 0.00 0.06 0.00 76 1001.7
20191020064203 44 221 0.0 0.0 0.00 0.06 0.00 76 1001.7
20191020063656 44 221 0.0 0.0 0.00 0.06 0.00 76 1001.7
20191020063155 44 221 0.0 0.0 0.00 0.06 0.00 77 1001.7
20191020062651 44 221 0.0 0.0 0.00 0.06 0.00 79 1001.7
20191020062146 45 221 0.0 0.0 0.00 0.06 0.00 78 1001.7
20191020061647 45 221 0.0 0.0 0.00 0.06 0.00 77 1001.8
20191020061146 45 221 0.0 0.0 0.00 0.06 0.00 77 1001.8
20191020060642 45 221 0.0 0.0 0.00 0.06 0.00 77 1001.8
20191020060141 45 221 0.0 0.0 0.00 0.06 0.00 76 1001.6
20191020055640 45 221 0.0 0.0 0.00 0.06 0.00 76 1001.6
20191020055138 45 221 0.0 0.0 0.00 0.06 0.00 76 1001.6
20191020054637 45 221 0.0 0.0 0.00 0.06 0.00 77 1001.6
20191020054136 45 221 0.0 0.0 0.00 0.06 0.00 79 1001.6
20191020053637 45 221 0.0 0.0 0.00 0.06 0.00 80 1001.6
20191020053137 45 221 0.0 0.0 0.00 0.06 0.00 80 1001.5
20191020052637 45 221 0.0 0.0 0.00 0.06 0.00 81 1001.5
20191020052136 45 221 0.0 0.0 0.00 0.06 0.00 82 1001.5
20191020051633 46 221 0.0 0.0 0.00 0.06 0.00 83 1001.5
20191020051133 46 221 0.0 0.0 0.00 0.06 0.00 82 1001.5
20191020050628 46 221 0.0 0.0 0.00 0.06 0.00 82 1001.5
20191020050130 47 221 0.0 0.0 0.00 0.06 0.00 81 1001.5
20191020045626 47 221 0.0 0.0 0.00 0.06 0.06 81 1001.5
20191020045127 47 221 0.0 0.0 0.00 0.06 0.06 80 1001.5
20191020044627 48 221 0.0 0.0 0.00 0.06 0.06 78 1001.5
20191020044126 48 221 0.0 0.0 0.00 0.06 0.06 77 1001.5
20191020043626 48 221 0.0 0.0 0.00 0.06 0.06 77 1001.5
20191020043123 48 221 0.0 0.0 0.00 0.06 0.06 78 1001.1
20191020042623 48 221 0.0 0.0 0.00 0.06 0.06 78 1001.1
20191020042121 48 221 0.0 0.0 0.00 0.06 0.06 78 1001.1
20191020041621 49 221 0.0 0.0 0.00 0.06 0.06 79 1000.9
20191020041119 49 221 0.0 0.0 0.00 0.06 0.06 80 1000.9
20191020040618 49 221 0.0 0.0 0.00 0.06 0.06 80 1000.9
20191020040116 49 221 0.0 0.0 0.00 0.06 0.06 80 1000.9
20191020035617 49 221 0.0 4.0 0.00 0.06 0.06 81 1000.9
20191020035112 49 221 0.0 4.0 0.00 0.06 0.06 81 1000.9
20191020034609 50 221 0.0 5.0 0.00 0.06 0.06 81 1000.9
20191020034108 50 221 0.0 5.0 0.00 0.06 0.06 82 1000.9
20191020033607 50 221 0.0 5.0 0.00 0.06 0.06 83 1000.9
20191020033104 50 221 0.0 5.0 0.00 0.06 0.06 83 1000.9
20191020032604 50 229 0.0 5.0 0.00 0.06 0.06 84 1000.9
20191020032103 50 229 0.0 5.0 0.00 0.06 0.06 84 1000.9
20191020031602 50 229 0.0 5.0 0.00 0.06 0.06 85 1000.9
20191020031101 50 243 1.0 5.0 0.00 0.06 0.06 85 1000.9
20191020030602 50 249 1.0 5.0 0.00 0.06 0.06 85 1000.9
20191020030058 50 256 0.0 6.0 0.00 0.06 0.06 85 1000.8
20191020025557 50 266 0.0 6.0 0.00 0.06 0.06 85 1000.8
20191020025057 50 266 0.0 9.0 0.00 0.06 0.06 85 1000.8
20191020024557 51 248 0.0 9.0 0.00 0.06 0.06 85 1000.7
20191020024056 51 230 1.0 8.0 0.00 0.06 0.06 85 1000.7
20191020023556 51 230 1.0 9.0 0.00 0.06 0.06 85 1000.7
20191020023054 51 251 1.0 7.0 0.00 0.06 0.06 86 1000.5
20191020022555 50 275 1.0 6.0 0.00 0.06 0.06 86 1000.5
20191020022055 50 249 1.0 6.0 0.00 0.06 0.06 86 1000.5
20191020021552 50 216 1.0 6.0 0.00 0.06 0.06 86 1000.4
20191020021052 50 254 1.0 4.0 0.00 0.06 0.06 86 1000.4
20191020020552 50 253 1.0 5.0 0.00 0.06 0.06 87 1000.4
20191020020051 50 256 1.0 5.0 0.00 0.06 0.06 87 1000.3
20191020015550 50 256 1.0 5.0 0.00 0.06 0.06 87 1000.3
20191020015047 50 222 1.0 5.0 0.00 0.06 0.06 87 1000.3
20191020014546 49 231 0.0 3.0 0.00 0.06 0.06 87 1000.4
20191020014046 49 230 0.0 2.0 0.00 0.06 0.06 86 1000.4
20191020013545 50 230 0.0 2.0 0.00 0.06 0.06 86 1000.4
20191020013044 50 230 0.0 2.0 0.00 0.06 0.06 86 1000.4
20191020012546 50 230 0.0 2.0 0.00 0.06 0.06 86 1000.4
20191020012042 50 230 0.0 0.0 0.00 0.06 0.06 85 1000.4
20191020011542 50 230 0.0 0.0 0.00 0.06 0.06 85 1000.3
20191020011042 50 230 0.0 0.0 0.00 0.06 0.06 85 1000.3
20191020010540 51 230 0.0 0.0 0.00 0.06 0.06 84 1000.3
20191020010042 51 230 0.0 1.0 0.00 0.06 0.06 84 1000.2
20191020005542 51 230 0.0 1.0 0.00 0.06 0.06 84 1000.2
20191020005038 51 230 0.0 1.0 0.00 0.06 0.06 84 1000.2
20191020004538 51 230 0.0 1.0 0.00 0.06 0.06 83 1000.0
20191020004034 51 235 0.0 0.0 0.00 0.06 0.06 83 1000.0
20191020003532 51 235 0.0 0.0 0.00 0.06 0.06 83 1000.0
20191020003030 51 235 0.0 2.0 0.00 0.06 0.06 83 999.9
20191020002532 51 235 0.0 2.0 0.00 0.06 0.06 83 999.9
20191020002030 51 235 0.0 2.0 0.00 0.06 0.06 83 999.9
20191020001530 52 235 0.0 2.0 0.00 0.06 0.06 83 999.8
20191020001030 52 235 0.0 3.0 0.00 0.06 0.06 83 999.8
20191020000531 52 235 0.0 3.0 0.00 0.06 0.06 82 999.8
20191020000030 52 235 0.0 3.0 0.00 0.06 0.06 81 999.6
20191019235531 52 235 0.0 3.0 0.00 0.06 0.06 80 999.6
20191019235028 52 235 0.0 0.0 0.00 0.06 0.06 80 999.6
20191019234526 53 235 0.0 0.0 0.00 0.06 0.06 80 999.4
20191019234024 53 235 0.0 0.0 0.00 0.06 0.06 79 999.4
20191019233526 53 235 0.0 0.0 0.00 0.06 0.06 78 999.4
20191019233024 53 235 0.0 1.0 0.00 0.06 0.06 78 999.4
20191019232522 53 235 0.0 1.0 0.00 0.06 0.06 77 999.4
20191019232022 54 235 0.0 1.0 0.00 0.06 0.06 76 999.4
20191019231522 54 235 0.0 1.0 0.00 0.06 0.06 75 999.3
20191019231019 55 235 0.0 0.0 0.00 0.06 0.06 75 999.3
20191019230520 55 235 0.0 0.0 0.00 0.06 0.06 74 999.3
20191019230020 55 235 0.0 0.0 0.00 0.06 0.06 74 999.3
20191019225520 56 235 0.0 0.0 0.00 0.06 0.06 73 999.3
20191019225019 56 235 0.0 0.0 0.00 0.06 0.06 73 999.3
20191019224516 57 235 0.0 0.0 0.00 0.06 0.06 73 999.1
20191019224012 57 235 0.0 0.0 0.00 0.06 0.06 73 999.1
20191019223510 57 235 0.0 0.0 0.00 0.06 0.06 73 999.1
20191019223009 57 235 0.0 0.0 0.00 0.06 0.06 73 998.9
20191019222508 58 235 0.0 0.0 0.00 0.06 0.06 73 998.9
20191019222007 58 235 0.0 0.0 0.00 0.06 0.06 73 998.9
20191019221505 58 235 0.0 0.0 0.00 0.06 0.06 72 998.8
20191019221006 58 235 0.0 0.0 0.00 0.06 0.06 72 998.8
20191019220506 58 235 0.0 0.0 0.00 0.06 0.06 72 998.8
20191019220006 58 235 0.0 0.0 0.00 0.06 0.06 72 998.8
20191019215506 59 235 0.0 0.0 0.00 0.06 0.06 72 998.8
20191019215006 59 235 0.0 0.0 0.00 0.06 0.06 72 998.8
20191019214506 59 235 0.0 0.0 0.00 0.06 0.06 73 998.8
20191019214005 59 235 0.0 0.0 0.00 0.06 0.06 74 998.8
20191019213504 59 235 0.0 0.0 0.00 0.06 0.06 74 998.8
20191019213004 59 235 0.0 0.0 0.00 0.06 0.06 75 998.6
20191019212457 59 235 0.0 0.0 0.00 0.06 0.06 77 998.6
20191019211957 59 235 0.0 0.0 0.00 0.06 0.06 78 998.6
20191019211459 58 235 0.0 0.0 0.00 0.06 0.06 80 998.6
20191019210959 58 235 0.0 0.0 0.00 0.06 0.06 81 998.6
20191019210456 58 235 0.0 0.0 0.00 0.06 0.06 83 998.6
20191019205954 57 235 0.0 0.0 0.00 0.06 0.06 84 998.4
20191019205454 57 235 0.0 0.0 0.00 0.06 0.06 85 998.4
20191019204952 57 235 0.0 0.0 0.00 0.06 0.06 87 998.4
20191019204451 56 235 0.0 0.0 0.00 0.06 0.06 88 998.4
20191019203946 56 235 0.0 0.0 0.00 0.06 0.06 88 998.4
20191019203445 56 235 0.0 0.0 0.00 0.06 0.06 89 998.4
20191019202940 55 235 0.0 0.0 0.00 0.06 0.06 90 998.2
20191019202439 55 235 0.0 0.0 0.00 0.06 0.06 90 998.2
20191019201938 55 235 0.0 0.0 0.00 0.06 0.06 91 998.2
20191019201436 55 235 0.0 0.0 0.00 0.06 0.06 91 998.4
20191019200935 55 235 0.0 0.0 0.00 0.06 0.06 92 998.4
20191019200436 55 235 0.0 0.0 0.00 0.06 0.06 93 998.4
20191019195935 54 235 0.0 0.0 0.00 0.06 0.06 94 998.4
20191019195435 54 235 0.0 6.0 0.00 0.06 0.06 95 998.4
20191019194937 53 235 0.0 6.0 0.00 0.06 0.06 95 998.4
20191019194437 53 235 1.0 6.0 0.00 0.06 0.06 95 998.5
20191019193934 53 235 2.0 6.0 0.00 0.06 0.06 96 998.5
20191019193433 53 240 1.0 5.0 0.00 0.06 0.06 96 998.5
20191019192931 52 241 0.0 5.0 0.00 0.06 0.06 97 998.7
20191019192432 52 241 1.0 5.0 0.00 0.06 0.06 96 998.7